THY203 LTFM-KSEA

Flight info

Callsign THY203
Flight time N/A
Altitude 32000
Route IBLAX P727 BGS L622 GONGO DCT KOMAN DCT KARIL DCT KENIN DCT LENOV DCT ROGAL DCT ARKUG DCT LUSID DCT DEGAV/N0483F340 DCT EMLER DCT UMBOR DCT 65N000E/M084F340 68N010W 70N020W 72N040W 72N060W/M084F360 DCT INGUM/N0496F360 DCT 70N082W 67N100W 63N110W DCT YOJ/N0481F380 DCT 54N120W DCT YVR/N0472F390
Aircraft B77W/H-SDE1E2E3FGHIJ2J3J4J5M1RWXY/LB1D1

Departure

Time N/A
Airport İstanbul Airport (LTFM)

Arrival

Time 2026-05-01 12:02
Airport Seattle–Tacoma International Airport (KSEA)
Time Latitude Longitude Altitude Speed Heading
2026-05-01 07:23 71.11553 -73.68221 35907 ft 474 kts 252°
2026-05-01 07:24 71.08488 -73.97124 35974 ft 475 kts 252°
2026-05-01 07:24 71.06420 -74.16347 35961 ft 475 kts 252°
2026-05-01 07:25 71.04336 -74.35497 35921 ft 475 kts 252°
2026-05-01 07:25 71.02228 -74.54642 35920 ft 475 kts 252°
2026-05-01 07:26 71.00101 -74.73739 35874 ft 476 kts 251°
2026-05-01 07:26 70.97954 -74.92797 35877 ft 475 kts 251°
2026-05-01 07:27 70.95786 -75.11829 35906 ft 475 kts 251°
2026-05-01 07:27 70.93607 -75.30743 35906 ft 475 kts 251°
2026-05-01 07:28 70.91404 -75.49664 35912 ft 476 kts 251°
2026-05-01 07:28 70.89170 -75.68639 35929 ft 476 kts 250°
2026-05-01 07:29 70.86932 -75.87437 35946 ft 476 kts 250°
2026-05-01 07:29 70.84654 -76.06370 35952 ft 476 kts 250°
2026-05-01 07:30 70.82367 -76.25172 35943 ft 476 kts 250°
2026-05-01 07:30 70.80056 -76.43971 35942 ft 477 kts 250°
2026-05-01 07:31 70.77737 -76.62635 35958 ft 477 kts 250°
2026-05-01 07:32 70.71810 -77.09486 36013 ft 478 kts 249°
2026-05-01 07:33 70.68201 -77.37425 36020 ft 477 kts 249°
2026-05-01 07:33 70.64553 -77.65241 36034 ft 477 kts 249°
2026-05-01 07:34 70.60874 -77.92876 36050 ft 477 kts 249°
2026-05-01 07:35 70.58385 -78.11342 36049 ft 478 kts 249°
2026-05-01 07:35 70.55886 -78.29693 36002 ft 479 kts 249°
2026-05-01 07:36 70.53360 -78.48061 36025 ft 478 kts 249°
2026-05-01 07:36 70.50821 -78.66349 36093 ft 478 kts 248°
2026-05-01 07:37 70.46962 -78.93806 36187 ft 479 kts 248°
2026-05-01 07:37 70.44373 -79.12009 36182 ft 479 kts 248°
2026-05-01 07:38 70.41761 -79.30190 36180 ft 479 kts 248°
2026-05-01 07:39 70.37815 -79.57343 36185 ft 479 kts 248°
2026-05-01 07:39 70.33817 -79.84462 36191 ft 479 kts 247°
2026-05-01 07:40 70.31130 -80.02486 36183 ft 478 kts 247°
2026-05-01 07:40 70.28438 -80.20366 36174 ft 479 kts 247°
2026-05-01 07:41 70.25706 -80.38345 36155 ft 480 kts 247°
2026-05-01 07:42 70.21582 -80.65187 36148 ft 480 kts 246°
2026-05-01 07:42 70.18813 -80.83003 36170 ft 480 kts 246°
2026-05-01 07:43 70.16030 -81.00747 36183 ft 480 kts 246°
2026-05-01 07:43 70.11808 -81.27369 36150 ft 481 kts 246°
2026-05-01 07:44 70.06125 -81.62645 36204 ft 479 kts 246°
2026-05-01 07:45 70.03270 -81.80132 36204 ft 480 kts 245°
2026-05-01 07:45 70.00382 -81.97757 36170 ft 480 kts 248°
2026-05-01 07:46 69.98337 -82.16193 36152 ft 478 kts 256°
2026-05-01 07:47 69.95628 -82.43921 36152 ft 478 kts 256°
2026-05-01 07:47 69.93769 -82.62493 36164 ft 478 kts 256°
2026-05-01 07:48 69.90945 -82.90176 36203 ft 479 kts 255°
2026-05-01 07:48 69.89019 -83.08750 36217 ft 480 kts 255°
2026-05-01 07:49 69.86111 -83.36347 36225 ft 478 kts 255°
2026-05-01 07:50 69.84154 -83.54637 36216 ft 477 kts 255°
2026-05-01 07:50 69.81171 -83.82130 36223 ft 479 kts 254°
2026-05-01 07:51 69.79153 -84.00462 36225 ft 479 kts 254°
2026-05-01 07:52 69.76109 -84.27736 36207 ft 478 kts 254°
2026-05-01 07:52 69.74056 -84.45865 36181 ft 477 kts 254°
2026-05-01 07:53 69.70950 -84.72938 36189 ft 478 kts 253°
2026-05-01 07:53 69.68838 -84.91088 36193 ft 478 kts 253°
2026-05-01 07:55 69.63522 -85.35944 36212 ft 477 kts 253°
2026-05-01 07:56 69.58067 -85.80773 36290 ft 477 kts 253°
2026-05-01 07:57 69.54752 -86.07455 36292 ft 478 kts 253°
2026-05-01 07:58 69.50262 -86.42954 36291 ft 478 kts 253°
2026-05-01 07:59 69.45706 -86.78268 36293 ft 479 kts 252°
2026-05-01 08:00 69.38720 -87.31087 36293 ft 477 kts 252°
2026-05-01 08:01 69.33973 -87.66113 36294 ft 477 kts 251°
2026-05-01 08:02 69.30376 -87.92219 36296 ft 477 kts 251°
2026-05-01 08:03 69.26744 -88.18199 36302 ft 476 kts 252°
2026-05-01 08:03 69.23085 -88.44012 36306 ft 476 kts 252°
2026-05-01 08:04 69.18147 -88.78301 36317 ft 476 kts 251°
2026-05-01 08:05 69.14395 -89.03927 36310 ft 475 kts 251°
2026-05-01 08:06 69.10603 -89.29494 36301 ft 475 kts 251°
2026-05-01 08:07 69.05513 -89.63268 36314 ft 474 kts 251°
2026-05-01 08:08 69.01649 -89.88519 36332 ft 475 kts 250°
2026-05-01 08:09 68.96416 -90.22199 36328 ft 475 kts 250°
2026-05-01 08:09 68.93770 -90.39003 36331 ft 475 kts 250°
2026-05-01 08:10 68.88453 -90.72346 36305 ft 475 kts 249°
2026-05-01 08:11 68.83048 -91.05670 36256 ft 476 kts 249°
2026-05-01 08:12 68.78975 -91.30414 36246 ft 476 kts 249°
2026-05-01 08:13 68.74839 -91.55226 36222 ft 475 kts 250°
2026-05-01 08:13 68.70681 -91.79867 36232 ft 475 kts 249°
2026-05-01 08:14 68.67887 -91.96255 36242 ft 475 kts 249°
2026-05-01 08:14 68.65096 -92.12488 36249 ft 475 kts 249°
2026-05-01 08:15 68.60841 -92.36996 36276 ft 474 kts 249°
2026-05-01 08:16 68.58009 -92.53147 36282 ft 475 kts 249°
2026-05-01 08:16 68.55141 -92.69366 36304 ft 475 kts 248°
2026-05-01 08:17 68.52269 -92.85483 36317 ft 475 kts 248°
2026-05-01 08:17 68.49367 -93.01638 36329 ft 475 kts 248°
2026-05-01 08:18 68.46453 -93.17731 36335 ft 475 kts 248°
2026-05-01 08:19 68.40601 -93.49676 36336 ft 475 kts 248°
2026-05-01 08:19 68.37639 -93.65659 36333 ft 475 kts 247°
2026-05-01 08:20 68.34675 -93.81529 36333 ft 475 kts 247°
2026-05-01 08:20 68.31685 -93.97414 36326 ft 474 kts 247°
2026-05-01 08:21 68.28701 -94.13146 36334 ft 476 kts 247°
2026-05-01 08:21 68.25663 -94.29041 36334 ft 475 kts 247°
2026-05-01 08:22 68.22639 -94.44749 36333 ft 474 kts 247°
2026-05-01 08:22 68.19591 -94.60457 36328 ft 474 kts 247°
2026-05-01 08:23 68.16524 -94.76142 36330 ft 475 kts 246°
2026-05-01 08:23 68.13470 -94.91649 36326 ft 474 kts 246°
2026-05-01 08:24 68.10375 -95.07250 36326 ft 474 kts 246°
2026-05-01 08:24 68.07279 -95.22734 36312 ft 474 kts 246°
2026-05-01 08:25 68.04181 -95.38121 36321 ft 474 kts 246°
2026-05-01 08:25 68.01059 -95.53513 36328 ft 473 kts 246°
2026-05-01 08:26 67.97916 -95.68891 36329 ft 473 kts 245°
2026-05-01 08:26 67.94752 -95.84265 36337 ft 474 kts 245°
2026-05-01 08:27 67.91573 -95.99600 36330 ft 473 kts 245°
2026-05-01 08:27 67.88390 -96.14841 36317 ft 472 kts 245°
2026-05-01 08:28 67.85205 -96.29987 36301 ft 472 kts 245°
2026-05-01 08:28 67.82022 -96.45013 36300 ft 471 kts 245°
2026-05-01 08:29 67.78796 -96.60141 36293 ft 472 kts 245°
2026-05-01 08:29 67.75577 -96.75122 36296 ft 472 kts 244°
2026-05-01 08:30 67.72329 -96.90138 36287 ft 470 kts 244°
2026-05-01 08:30 67.69090 -97.05005 36290 ft 471 kts 244°
2026-05-01 08:31 67.65826 -97.19885 36296 ft 471 kts 244°
2026-05-01 08:31 67.62564 -97.34652 36317 ft 470 kts 244°
2026-05-01 08:32 67.59290 -97.49374 36311 ft 470 kts 244°
2026-05-01 08:32 67.56003 -97.64053 36304 ft 469 kts 244°
2026-05-01 08:33 67.52698 -97.78711 36301 ft 469 kts 243°
2026-05-01 08:33 67.49386 -97.93303 36294 ft 468 kts 243°
2026-05-01 08:34 67.46078 -98.07780 36289 ft 468 kts 243°
2026-05-01 08:34 67.42731 -98.22327 36277 ft 468 kts 243°
2026-05-01 08:35 67.39392 -98.36745 36276 ft 469 kts 243°
2026-05-01 08:35 67.36047 -98.51095 36270 ft 468 kts 243°
2026-05-01 08:36 67.32672 -98.65474 36262 ft 468 kts 242°
2026-05-01 08:36 67.29268 -98.79883 36257 ft 469 kts 243°
2026-05-01 08:37 67.25875 -98.94149 36258 ft 469 kts 243°
2026-05-01 08:37 67.22463 -99.08400 36243 ft 468 kts 243°
2026-05-01 08:38 67.19048 -99.22574 36244 ft 466 kts 243°
2026-05-01 08:38 67.15636 -99.36642 36243 ft 466 kts 243°
2026-05-01 08:39 67.12199 -99.50725 36233 ft 466 kts 243°
2026-05-01 08:39 67.08757 -99.64735 36233 ft 467 kts 243°
2026-05-01 08:40 67.03576 -99.85659 36224 ft 466 kts 242°
2026-05-01 08:40 66.99907 -99.99292 36218 ft 469 kts 237°
2026-05-01 08:41 66.95940 -100.12315 36211 ft 468 kts 236°
2026-05-01 08:41 66.91897 -100.25327 36206 ft 469 kts 236°
2026-05-01 08:42 66.87837 -100.38196 36197 ft 468 kts 236°
2026-05-01 08:42 66.83781 -100.50911 36195 ft 467 kts 236°
2026-05-01 08:43 66.79701 -100.63596 36192 ft 467 kts 236°
2026-05-01 08:43 66.75567 -100.76358 36191 ft 468 kts 235°
2026-05-01 08:44 66.71465 -100.88934 36187 ft 467 kts 235°
2026-05-01 08:44 66.67336 -101.01519 36183 ft 467 kts 235°
2026-05-01 08:45 66.63195 -101.14061 36181 ft 467 kts 235°
2026-05-01 08:45 66.59055 -101.26530 36176 ft 467 kts 235°
2026-05-01 08:46 66.54905 -101.38953 36176 ft 467 kts 235°
2026-05-01 08:46 66.50750 -101.51324 36163 ft 466 kts 235°
2026-05-01 08:47 66.46599 -101.63610 36161 ft 465 kts 235°
2026-05-01 08:47 66.42424 -101.75900 36155 ft 466 kts 234°
2026-05-01 08:48 66.38245 -101.88129 36152 ft 465 kts 234°
2026-05-01 08:48 66.34058 -102.00317 36146 ft 465 kts 234°
2026-05-01 08:49 66.29864 -102.12455 36131 ft 465 kts 234°
2026-05-01 08:49 66.25660 -102.24554 36119 ft 464 kts 234°
2026-05-01 08:50 66.21453 -102.36594 36116 ft 464 kts 234°
2026-05-01 08:50 66.17213 -102.48663 36114 ft 465 kts 234°
2026-05-01 08:51 66.12994 -102.60603 36112 ft 464 kts 233°
2026-05-01 08:51 66.08745 -102.72568 36114 ft 465 kts 233°
2026-05-01 08:52 66.04523 -102.84385 36110 ft 464 kts 233°
2026-05-01 08:52 66.00275 -102.96211 36116 ft 463 kts 233°
2026-05-01 08:53 65.96025 -103.07980 36100 ft 462 kts 233°
2026-05-01 08:53 65.91775 -103.19685 36094 ft 463 kts 233°
2026-05-01 08:54 65.87534 -103.31303 36083 ft 462 kts 233°
2026-05-01 08:54 65.83255 -103.42960 36077 ft 462 kts 233°
2026-05-01 08:55 65.78992 -103.54511 36070 ft 460 kts 233°
2026-05-01 08:55 65.74723 -103.66019 36060 ft 461 kts 232°
2026-05-01 08:56 65.70448 -103.77483 36052 ft 460 kts 232°
2026-05-01 08:56 65.66142 -103.88966 36050 ft 460 kts 232°
2026-05-01 08:57 65.61848 -104.00359 36043 ft 461 kts 232°
2026-05-01 08:57 65.57558 -104.11677 36036 ft 461 kts 232°
2026-05-01 08:58 65.53233 -104.23029 36025 ft 460 kts 231°
2026-05-01 08:58 65.48918 -104.34296 36019 ft 460 kts 231°
2026-05-01 08:59 65.44589 -104.45543 36017 ft 459 kts 231°
2026-05-01 08:59 65.40279 -104.56680 36014 ft 459 kts 231°
2026-05-01 09:00 65.35925 -104.67870 36014 ft 459 kts 231°
2026-05-01 09:00 65.31571 -104.79005 36011 ft 460 kts 230°
2026-05-01 09:01 65.27231 -104.90048 35998 ft 459 kts 230°
2026-05-01 09:01 65.22870 -105.01083 36004 ft 458 kts 230°
2026-05-01 09:02 65.18518 -105.12041 35992 ft 458 kts 230°
2026-05-01 09:02 65.14167 -105.22941 35981 ft 457 kts 230°
2026-05-01 09:03 65.09808 -105.33806 35992 ft 457 kts 230°
2026-05-01 09:03 65.05437 -105.44647 35981 ft 456 kts 230°
2026-05-01 09:04 65.01073 -105.55413 35977 ft 455 kts 230°
2026-05-01 09:04 64.96699 -105.66151 35963 ft 456 kts 229°
2026-05-01 09:05 64.92325 -105.76835 35964 ft 457 kts 230°
2026-05-01 09:05 64.87936 -105.87501 35952 ft 457 kts 229°
2026-05-01 09:06 64.83549 -105.98110 35945 ft 455 kts 229°
2026-05-01 09:06 64.79145 -106.08708 35944 ft 456 kts 229°
2026-05-01 09:07 64.74712 -106.19321 35942 ft 455 kts 229°
2026-05-01 09:07 64.70309 -106.29813 35934 ft 457 kts 229°
2026-05-01 09:08 64.65875 -106.40321 35916 ft 456 kts 229°
2026-05-01 09:08 64.61423 -106.50824 35917 ft 454 kts 229°
2026-05-01 09:09 64.56986 -106.61240 35898 ft 455 kts 229°
2026-05-01 09:09 64.52553 -106.71596 35903 ft 456 kts 228°
2026-05-01 09:10 64.48086 -106.81977 35896 ft 455 kts 229°
2026-05-01 09:10 64.43626 -106.92294 35883 ft 455 kts 228°
2026-05-01 09:11 64.39162 -107.02569 35874 ft 454 kts 228°
2026-05-01 09:11 64.34682 -107.12829 35858 ft 454 kts 228°
2026-05-01 09:12 64.30219 -107.23004 35850 ft 453 kts 228°
2026-05-01 09:12 64.25732 -107.33183 35852 ft 454 kts 228°
2026-05-01 09:13 64.21257 -107.43287 35851 ft 454 kts 228°
2026-05-01 09:13 64.16766 -107.53378 35847 ft 452 kts 228°
2026-05-01 09:14 64.12264 -107.63445 35838 ft 453 kts 228°
2026-05-01 09:14 64.07761 -107.73470 35843 ft 454 kts 227°
2026-05-01 09:15 64.03276 -107.83401 35834 ft 451 kts 227°
2026-05-01 09:15 63.98777 -107.93322 35833 ft 453 kts 227°
2026-05-01 09:16 63.94249 -108.03256 35832 ft 452 kts 227°
2026-05-01 09:17 63.87463 -108.18058 35816 ft 452 kts 227°
2026-05-01 09:17 63.80665 -108.32783 35822 ft 452 kts 227°
2026-05-01 09:18 63.74000 -108.47119 35804 ft 451 kts 227°
2026-05-01 09:19 63.67200 -108.61644 35791 ft 449 kts 227°
2026-05-01 09:20 63.60379 -108.76115 35781 ft 450 kts 226°
2026-05-01 09:21 63.51317 -108.95185 35772 ft 449 kts 226°
2026-05-01 09:21 63.44490 -109.09437 35773 ft 451 kts 226°
2026-05-01 09:22 63.35377 -109.28310 35749 ft 449 kts 226°
2026-05-01 09:23 63.28479 -109.42484 35754 ft 449 kts 226°
2026-05-01 09:24 63.21623 -109.56475 35752 ft 450 kts 226°
2026-05-01 09:25 63.13348 -109.73236 35748 ft 450 kts 225°
2026-05-01 09:26 63.07184 -109.85635 35750 ft 450 kts 225°
2026-05-01 09:26 63.00997 -109.97993 35745 ft 451 kts 224°
2026-05-01 09:27 62.94167 -110.11124 35750 ft 451 kts 224°
2026-05-01 09:28 62.89463 -110.20094 35737 ft 450 kts 224°
2026-05-01 09:28 62.84729 -110.29073 35744 ft 449 kts 224°
2026-05-01 09:29 62.78621 -110.40596 35725 ft 448 kts 224°
2026-05-01 09:30 62.71539 -110.53873 35725 ft 448 kts 224°
2026-05-01 09:30 62.64425 -110.67120 35727 ft 448 kts 223°
2026-05-01 09:31 62.60641 -110.74130 35717 ft 448 kts 223°
2026-05-01 09:32 62.53657 -110.87008 35722 ft 448 kts 223°
2026-05-01 09:32 62.46505 -111.00110 35724 ft 449 kts 223°
2026-05-01 09:33 62.41734 -111.08800 35715 ft 448 kts 223°
2026-05-01 09:34 62.35574 -111.19970 35705 ft 448 kts 223°
2026-05-01 09:34 62.28406 -111.32887 35690 ft 450 kts 223°
2026-05-01 09:35 62.21217 -111.45759 35706 ft 450 kts 223°
2026-05-01 09:36 62.16389 -111.54356 35700 ft 450 kts 223°
2026-05-01 09:36 62.11583 -111.62878 35689 ft 450 kts 223°
2026-05-01 09:37 62.06771 -111.71378 35720 ft 452 kts 222°
2026-05-01 09:37 61.99517 -111.84118 35716 ft 453 kts 223°
2026-05-01 09:38 61.92248 -111.96804 35725 ft 452 kts 222°
2026-05-01 09:39 61.84970 -112.09425 35722 ft 451 kts 222°
2026-05-01 09:39 61.80102 -112.17823 35735 ft 452 kts 223°
2026-05-01 09:40 61.72810 -112.30336 35737 ft 452 kts 223°
2026-05-01 09:41 61.67946 -112.38638 35733 ft 450 kts 223°
2026-05-01 09:41 61.60647 -112.51032 35720 ft 450 kts 223°
2026-05-01 09:42 61.55790 -112.59238 35725 ft 451 kts 223°
2026-05-01 09:43 61.46059 -112.75575 35743 ft 449 kts 222°
2026-05-01 09:43 61.41174 -112.83727 35738 ft 450 kts 222°
2026-05-01 09:44 61.33889 -112.95819 35729 ft 450 kts 222°
2026-05-01 09:45 61.28983 -113.03920 35749 ft 449 kts 222°
2026-05-01 09:45 61.21651 -113.15968 35753 ft 450 kts 222°
2026-05-01 09:46 61.16784 -113.23924 35758 ft 449 kts 222°
2026-05-01 09:46 61.11884 -113.31902 35767 ft 448 kts 222°
2026-05-01 09:47 61.06996 -113.39827 35764 ft 447 kts 222°
2026-05-01 09:47 61.02116 -113.47710 35765 ft 448 kts 222°
2026-05-01 09:48 60.97236 -113.55560 35765 ft 449 kts 222°
2026-05-01 09:48 60.92357 -113.63375 35770 ft 447 kts 222°
2026-05-01 09:49 60.87420 -113.71255 35771 ft 449 kts 221°
2026-05-01 09:49 60.82519 -113.79044 35772 ft 448 kts 221°
2026-05-01 09:50 60.77592 -113.86842 35781 ft 448 kts 221°
2026-05-01 09:50 60.72692 -113.94568 35776 ft 447 kts 221°
2026-05-01 09:51 60.67763 -114.02309 35777 ft 446 kts 221°
2026-05-01 09:51 60.62883 -114.09943 35779 ft 448 kts 221°
2026-05-01 09:52 60.57928 -114.17664 35785 ft 448 kts 221°
2026-05-01 09:52 60.53022 -114.25278 35790 ft 447 kts 221°
2026-05-01 09:53 60.48098 -114.32890 35791 ft 448 kts 221°
2026-05-01 09:53 60.43167 -114.40482 35791 ft 447 kts 221°
2026-05-01 09:54 60.38226 -114.48061 35794 ft 447 kts 221°
2026-05-01 09:54 60.33283 -114.55613 35794 ft 447 kts 221°
2026-05-01 09:55 60.28339 -114.63139 35803 ft 447 kts 221°
2026-05-01 09:55 60.23391 -114.70641 35812 ft 446 kts 220°
2026-05-01 09:56 60.18439 -114.78120 35815 ft 448 kts 220°
2026-05-01 09:56 60.13491 -114.85562 35819 ft 446 kts 220°
2026-05-01 09:57 60.08528 -114.92999 35841 ft 446 kts 220°
2026-05-01 09:57 60.03587 -115.00375 35829 ft 446 kts 220°
2026-05-01 09:58 59.98612 -115.07775 35822 ft 446 kts 220°
2026-05-01 09:58 59.93667 -115.15100 35679 ft 446 kts 220°
2026-05-01 09:59 59.91142 -115.18832 35781 ft 449 kts 220°
2026-05-01 09:59 59.88675 -115.22470 35810 ft 449 kts 220°
2026-05-01 09:59 59.83669 -115.29829 35826 ft 449 kts 220°
2026-05-01 10:00 59.78650 -115.37177 35795 ft 447 kts 220°
2026-05-01 10:00 59.73636 -115.44495 35833 ft 451 kts 220°
2026-05-01 10:01 59.68592 -115.51825 35832 ft 450 kts 220°
2026-05-01 10:01 59.63571 -115.59094 35833 ft 450 kts 220°
2026-05-01 10:02 59.58506 -115.66399 35836 ft 451 kts 219°
2026-05-01 10:02 59.53458 -115.73654 35842 ft 451 kts 219°
2026-05-01 10:03 59.48398 -115.80897 35846 ft 452 kts 219°
2026-05-01 10:03 59.43336 -115.88115 35846 ft 451 kts 219°
2026-05-01 10:04 59.38262 -115.95324 35853 ft 452 kts 219°
2026-05-01 10:04 59.33196 -116.02495 35858 ft 453 kts 219°
2026-05-01 10:05 59.28094 -116.09689 35862 ft 454 kts 219°
2026-05-01 10:05 59.22979 -116.16872 35860 ft 453 kts 219°
2026-05-01 10:06 59.17892 -116.23992 35870 ft 453 kts 219°
2026-05-01 10:06 59.12801 -116.31089 35869 ft 453 kts 218°
2026-05-01 10:07 59.07689 -116.38189 35870 ft 453 kts 218°
2026-05-01 10:07 59.02598 -116.45235 35872 ft 452 kts 218°
2026-05-01 10:08 58.94926 -116.55801 35871 ft 453 kts 218°
2026-05-01 10:09 58.89795 -116.62837 35876 ft 454 kts 218°
2026-05-01 10:09 58.84645 -116.69872 35885 ft 455 kts 218°
2026-05-01 10:10 58.79496 -116.76879 35892 ft 456 kts 218°
2026-05-01 10:10 58.71759 -116.87360 35895 ft 455 kts 218°
2026-05-01 10:11 58.66579 -116.94343 35906 ft 455 kts 217°
2026-05-01 10:11 58.61402 -117.01298 35909 ft 456 kts 218°
2026-05-01 10:12 58.57023 -117.06970 35908 ft 458 kts 212°
2026-05-01 10:13 58.47265 -117.14925 35921 ft 462 kts 205°
2026-05-01 10:13 58.41301 -117.19352 35926 ft 462 kts 204°
2026-05-01 10:14 58.32311 -117.25890 35926 ft 463 kts 204°
2026-05-01 10:14 58.26321 -117.30194 35928 ft 463 kts 204°
2026-05-01 10:15 58.20327 -117.34474 35928 ft 463 kts 204°
2026-05-01 10:15 58.14324 -117.38738 35934 ft 463 kts 204°
2026-05-01 10:16 58.08303 -117.42995 35927 ft 463 kts 204°
2026-05-01 10:17 57.99300 -117.49328 35926 ft 463 kts 204°
2026-05-01 10:17 57.90262 -117.55650 35929 ft 462 kts 204°
2026-05-01 10:18 57.81258 -117.61915 35936 ft 462 kts 204°
2026-05-01 10:19 57.75275 -117.66059 35938 ft 462 kts 203°
2026-05-01 10:19 57.69272 -117.70202 35940 ft 462 kts 203°
2026-05-01 10:20 57.60276 -117.76383 35933 ft 460 kts 203°
2026-05-01 10:20 57.54299 -117.80472 35937 ft 460 kts 203°
2026-05-01 10:21 57.45348 -117.86568 35928 ft 459 kts 204°
2026-05-01 10:22 57.36359 -117.92660 35945 ft 459 kts 204°
2026-05-01 10:23 57.27451 -117.98663 35948 ft 457 kts 204°
2026-05-01 10:23 57.18536 -118.04641 35955 ft 455 kts 204°
2026-05-01 10:24 57.06672 -118.12550 35953 ft 455 kts 204°
2026-05-01 10:25 56.94767 -118.20431 35963 ft 455 kts 204°
2026-05-01 10:26 56.88860 -118.24322 35967 ft 454 kts 204°
2026-05-01 10:27 56.77041 -118.32069 35969 ft 454 kts 204°
2026-05-01 10:28 56.68177 -118.37842 35969 ft 450 kts 204°
2026-05-01 10:28 56.59321 -118.43584 35970 ft 451 kts 204°
2026-05-01 10:29 56.50515 -118.49264 35967 ft 449 kts 204°
2026-05-01 10:30 56.38787 -118.56786 35973 ft 446 kts 205°
2026-05-01 10:31 56.27141 -118.64208 35985 ft 446 kts 205°
2026-05-01 10:32 56.18389 -118.69752 35980 ft 443 kts 204°
2026-05-01 10:33 56.06813 -118.77045 35983 ft 439 kts 205°
2026-05-01 10:34 55.98166 -118.82464 35980 ft 440 kts 205°
2026-05-01 10:34 55.92395 -118.86065 35983 ft 440 kts 205°
2026-05-01 10:35 55.83749 -118.91441 35990 ft 441 kts 205°
2026-05-01 10:35 55.77979 -118.95012 35982 ft 439 kts 204°
2026-05-01 10:36 55.69348 -119.00337 35994 ft 439 kts 204°
2026-05-01 10:37 55.63615 -119.03858 36000 ft 440 kts 204°
2026-05-01 10:37 55.54947 -119.09163 36006 ft 440 kts 204°
2026-05-01 10:38 55.49166 -119.12688 36010 ft 441 kts 204°
2026-05-01 10:38 55.43405 -119.16188 36008 ft 441 kts 204°
2026-05-01 10:39 55.37655 -119.19671 36012 ft 439 kts 204°
2026-05-01 10:39 55.31850 -119.23177 36012 ft 441 kts 204°
2026-05-01 10:40 55.26096 -119.26642 36016 ft 441 kts 204°
2026-05-01 10:40 55.20337 -119.30099 36024 ft 441 kts 204°
2026-05-01 10:41 55.14548 -119.33562 36020 ft 439 kts 204°
2026-05-01 10:42 55.05885 -119.38726 36024 ft 439 kts 204°
2026-05-01 10:42 55.00122 -119.42149 36021 ft 440 kts 204°
2026-05-01 10:43 54.94382 -119.45547 36025 ft 439 kts 204°
2026-05-01 10:43 54.88580 -119.48972 36033 ft 439 kts 204°
2026-05-01 10:44 54.82827 -119.52357 36042 ft 441 kts 204°
2026-05-01 10:44 54.77036 -119.55756 36046 ft 442 kts 204°
2026-05-01 10:45 54.71257 -119.59135 36057 ft 442 kts 204°
2026-05-01 10:45 54.65442 -119.62525 36052 ft 441 kts 204°
2026-05-01 10:46 54.59643 -119.65897 36068 ft 441 kts 203°
2026-05-01 10:46 54.53862 -119.69248 36067 ft 441 kts 203°
2026-05-01 10:47 54.48040 -119.72613 36072 ft 443 kts 202°
2026-05-01 10:47 54.42231 -119.75959 36080 ft 441 kts 203°
2026-05-01 10:48 54.36409 -119.79305 36090 ft 442 kts 203°
2026-05-01 10:48 54.30582 -119.82642 36089 ft 442 kts 202°
2026-05-01 10:49 54.24782 -119.85953 36082 ft 442 kts 202°
2026-05-01 10:49 54.18951 -119.89273 36095 ft 441 kts 202°
2026-05-01 10:50 54.13145 -119.92568 36084 ft 441 kts 202°
2026-05-01 10:50 54.07305 -119.95875 36092 ft 444 kts 202°
2026-05-01 10:51 54.01446 -119.99181 36089 ft 446 kts 202°
2026-05-01 10:51 53.95696 -120.02884 36086 ft 443 kts 207°
2026-05-01 10:52 53.90086 -120.07004 36086 ft 443 kts 207°
2026-05-01 10:52 53.84432 -120.11102 36103 ft 444 kts 207°
2026-05-01 10:53 53.78780 -120.15162 36103 ft 443 kts 207°
2026-05-01 10:53 53.73107 -120.19209 36106 ft 443 kts 207°
2026-05-01 10:54 53.67420 -120.23250 36102 ft 443 kts 207°
2026-05-01 10:54 53.61768 -120.27250 36105 ft 443 kts 207°
2026-05-01 10:55 53.56094 -120.31253 36105 ft 444 kts 207°
2026-05-01 10:55 53.50391 -120.35262 36112 ft 445 kts 207°
2026-05-01 10:56 53.44714 -120.39241 36112 ft 445 kts 207°
2026-05-01 10:56 53.39003 -120.43233 36114 ft 446 kts 207°
2026-05-01 10:57 53.33324 -120.47189 36112 ft 446 kts 207°
2026-05-01 10:57 53.27601 -120.51165 36109 ft 445 kts 207°
2026-05-01 10:58 53.21902 -120.55114 36107 ft 446 kts 207°
2026-05-01 10:58 53.16190 -120.59059 36109 ft 446 kts 207°
2026-05-01 10:59 53.10443 -120.63017 36108 ft 447 kts 207°
2026-05-01 10:59 53.04736 -120.66936 36113 ft 447 kts 206°
2026-05-01 11:00 52.98999 -120.70866 36117 ft 447 kts 206°
2026-05-01 11:00 52.93273 -120.74775 36117 ft 447 kts 206°
2026-05-01 11:01 52.87503 -120.78704 36120 ft 448 kts 206°
2026-05-01 11:01 52.81793 -120.82580 36122 ft 447 kts 206°
2026-05-01 11:02 52.76054 -120.86465 36123 ft 447 kts 206°
2026-05-01 11:02 52.70304 -120.90346 36120 ft 447 kts 206°
2026-05-01 11:03 52.64534 -120.94230 36109 ft 447 kts 206°
2026-05-01 11:03 52.58816 -120.98068 36099 ft 448 kts 206°
2026-05-01 11:04 52.53062 -121.01919 36087 ft 447 kts 206°
2026-05-01 11:04 52.47303 -121.05762 36092 ft 447 kts 206°
2026-05-01 11:05 52.41563 -121.09583 36088 ft 448 kts 206°
2026-05-01 11:05 52.35809 -121.13401 36080 ft 449 kts 206°
2026-05-01 11:06 52.30017 -121.17234 36079 ft 449 kts 206°
2026-05-01 11:06 52.24279 -121.21021 36085 ft 449 kts 206°
2026-05-01 11:07 52.15602 -121.26726 36084 ft 449 kts 206°
2026-05-01 11:07 52.09834 -121.30505 36078 ft 449 kts 206°
2026-05-01 11:08 52.04066 -121.34274 36072 ft 449 kts 206°
2026-05-01 11:09 51.95365 -121.39941 36075 ft 450 kts 206°
2026-05-01 11:09 51.89597 -121.43684 36074 ft 449 kts 206°
2026-05-01 11:10 51.80899 -121.49307 36077 ft 450 kts 206°
2026-05-01 11:10 51.75132 -121.53024 36076 ft 450 kts 206°
2026-05-01 11:11 51.69333 -121.56750 36076 ft 450 kts 206°
2026-05-01 11:11 51.63506 -121.60486 36075 ft 450 kts 205°
2026-05-01 11:12 51.57699 -121.64197 36079 ft 451 kts 206°
2026-05-01 11:12 51.51899 -121.67893 36084 ft 451 kts 205°
2026-05-01 11:13 51.46069 -121.71599 36088 ft 452 kts 205°
2026-05-01 11:13 51.40253 -121.75285 36089 ft 451 kts 205°
2026-05-01 11:14 51.34431 -121.78964 36090 ft 451 kts 205°
2026-05-01 11:14 51.28619 -121.82628 36088 ft 451 kts 205°
2026-05-01 11:15 51.22783 -121.86298 36089 ft 453 kts 205°
2026-05-01 11:15 51.16951 -121.89953 36090 ft 450 kts 205°
2026-05-01 11:16 51.11100 -121.93612 36094 ft 451 kts 205°
2026-05-01 11:16 51.05298 -121.97229 36098 ft 451 kts 205°
2026-05-01 11:17 50.99749 -122.00680 36094 ft 452 kts 205°
2026-05-01 11:17 50.93878 -122.04321 36095 ft 452 kts 205°
2026-05-01 11:18 50.88051 -122.07925 36109 ft 452 kts 205°
2026-05-01 11:18 50.82187 -122.11543 36112 ft 450 kts 205°
2026-05-01 11:19 50.76350 -122.15134 36112 ft 451 kts 205°
2026-05-01 11:19 50.70518 -122.18713 36119 ft 451 kts 205°
2026-05-01 11:20 50.64651 -122.22303 36117 ft 451 kts 205°
2026-05-01 11:20 50.58796 -122.25876 36126 ft 450 kts 205°
2026-05-01 11:21 50.52976 -122.29419 36135 ft 452 kts 205°
2026-05-01 11:21 50.47110 -122.32980 36130 ft 451 kts 205°
2026-05-01 11:22 50.41288 -122.36504 36130 ft 450 kts 205°
2026-05-01 11:22 50.35450 -122.40030 36123 ft 451 kts 205°
2026-05-01 11:23 50.29608 -122.43549 36115 ft 451 kts 205°
2026-05-01 11:23 50.23746 -122.47069 36115 ft 450 kts 205°
2026-05-01 11:24 50.17883 -122.50581 36103 ft 451 kts 205°
2026-05-01 11:25 50.09101 -122.55826 36120 ft 451 kts 204°
2026-05-01 11:25 50.00326 -122.61045 36126 ft 452 kts 204°
2026-05-01 11:26 49.91478 -122.66287 36112 ft 455 kts 204°
2026-05-01 11:27 49.85585 -122.69766 36123 ft 453 kts 204°
2026-05-01 11:27 49.79723 -122.73219 36121 ft 453 kts 204°
2026-05-01 11:28 49.73829 -122.76681 36107 ft 454 kts 204°
2026-05-01 11:28 49.67901 -122.80154 36111 ft 454 kts 204°
2026-05-01 11:29 49.59065 -122.85315 36113 ft 454 kts 204°
2026-05-01 11:30 49.50201 -122.90471 36109 ft 453 kts 203°
2026-05-01 11:30 49.44328 -122.93877 36098 ft 454 kts 203°
2026-05-01 11:31 49.38423 -122.97292 36088 ft 454 kts 203°
2026-05-01 11:31 49.32521 -123.00696 36077 ft 454 kts 203°
2026-05-01 11:32 49.26595 -123.04107 36073 ft 455 kts 203°
2026-05-01 11:32 49.20658 -123.07513 36065 ft 455 kts 203°
2026-05-01 11:33 49.14757 -123.10892 36062 ft 455 kts 203°
2026-05-01 11:33 49.08639 -123.13262 35802 ft 450 kts 189°
2026-05-01 11:33 49.05494 -123.13485 34893 ft 458 kts 181°
2026-05-01 11:34 49.02308 -123.13041 33579 ft 471 kts 174°
2026-05-01 11:34 48.99027 -123.12177 32325 ft 480 kts 173°
2026-05-01 11:34 48.95762 -123.11268 31323 ft 482 kts 173°
2026-05-01 11:34 48.92491 -123.10342 30548 ft 479 kts 173°
2026-05-01 11:35 48.89218 -123.09409 29822 ft 476 kts 173°
2026-05-01 11:35 48.85956 -123.08473 29111 ft 473 kts 172°
2026-05-01 11:35 48.82738 -123.07547 28519 ft 467 kts 172°
2026-05-01 11:35 48.79596 -123.06641 27974 ft 461 kts 172°
2026-05-01 11:36 48.76431 -123.05727 27423 ft 454 kts 172°
2026-05-01 11:36 48.73374 -123.04844 26874 ft 449 kts 172°
2026-05-01 11:36 48.70322 -123.03963 26332 ft 443 kts 172°
2026-05-01 11:36 48.67284 -123.03086 25692 ft 440 kts 172°
2026-05-01 11:37 48.64293 -123.02224 24997 ft 438 kts 172°
2026-05-01 11:37 48.61299 -123.01361 24318 ft 436 kts 172°
2026-05-01 11:37 48.58360 -123.00514 23649 ft 434 kts 172°
2026-05-01 11:37 48.55386 -122.99658 22969 ft 431 kts 172°
2026-05-01 11:38 48.52438 -122.98811 22294 ft 428 kts 172°
2026-05-01 11:38 48.49556 -122.97982 21633 ft 425 kts 172°
2026-05-01 11:38 48.46656 -122.97150 20968 ft 423 kts 172°
2026-05-01 11:38 48.43773 -122.96323 20301 ft 420 kts 171°
2026-05-01 11:39 48.40885 -122.95496 19629 ft 417 kts 171°
2026-05-01 11:39 48.38054 -122.94686 18966 ft 414 kts 171°
2026-05-01 11:39 48.35235 -122.93881 18306 ft 412 kts 171°
2026-05-01 11:39 48.32403 -122.93072 17646 ft 409 kts 171°
2026-05-01 11:40 48.29614 -122.92277 16983 ft 406 kts 171°
2026-05-01 11:40 48.26874 -122.91496 16218 ft 400 kts 171°
2026-05-01 11:40 48.24176 -122.90727 15585 ft 384 kts 171°
2026-05-01 11:40 48.21556 -122.89982 14970 ft 379 kts 171°
2026-05-01 11:41 48.18999 -122.89256 14319 ft 374 kts 171°
2026-05-01 11:41 48.16450 -122.88533 13657 ft 369 kts 171°
2026-05-01 11:41 48.13930 -122.87820 13000 ft 366 kts 171°
2026-05-01 11:41 48.11454 -122.87120 12245 ft 363 kts 171°
2026-05-01 11:42 48.08963 -122.86416 12008 ft 361 kts 171°
2026-05-01 11:42 48.06507 -122.85724 12020 ft 362 kts 171°
2026-05-01 11:42 48.04061 -122.84759 11955 ft 360 kts 160°
2026-05-01 11:42 48.01893 -122.83111 11964 ft 342 kts 151°
2026-05-01 11:43 47.99886 -122.81330 11957 ft 324 kts 151°
2026-05-01 11:43 47.97991 -122.79629 11975 ft 316 kts 151°
2026-05-01 11:43 47.96100 -122.77927 11980 ft 316 kts 150°
2026-05-01 11:44 47.92339 -122.74533 11976 ft 316 kts 150°
2026-05-01 11:44 47.90464 -122.72844 11979 ft 316 kts 150°
2026-05-01 11:44 47.88579 -122.71146 11977 ft 316 kts 150°
2026-05-01 11:44 47.86695 -122.69451 11901 ft 318 kts 150°
2026-05-01 11:45 47.84832 -122.67776 11653 ft 315 kts 150°
2026-05-01 11:45 47.82961 -122.66095 11518 ft 314 kts 150°
2026-05-01 11:45 47.81083 -122.64409 11423 ft 315 kts 150°
2026-05-01 11:45 47.79205 -122.62725 11306 ft 315 kts 150°
2026-05-01 11:46 47.77342 -122.61056 11054 ft 314 kts 150°
2026-05-01 11:46 47.75466 -122.59377 10977 ft 311 kts 150°
2026-05-01 11:46 47.73638 -122.57742 10976 ft 302 kts 150°
2026-05-01 11:46 47.71856 -122.56229 10976 ft 291 kts 154°
2026-05-01 11:47 47.70041 -122.54945 10954 ft 290 kts 156°
2026-05-01 11:47 47.68201 -122.53690 10760 ft 288 kts 156°
2026-05-01 11:47 47.66407 -122.52464 10595 ft 287 kts 156°
2026-05-01 11:47 47.64585 -122.51216 10473 ft 286 kts 156°
2026-05-01 11:48 47.62796 -122.49990 10345 ft 286 kts 156°
2026-05-01 11:48 47.61004 -122.48762 10220 ft 284 kts 156°
2026-05-01 11:48 47.59237 -122.47552 10089 ft 275 kts 156°
2026-05-01 11:48 47.57487 -122.46606 9978 ft 262 kts 172°
2026-05-01 11:49 47.55685 -122.46412 9980 ft 259 kts 180°
2026-05-01 11:49 47.53867 -122.46400 9770 ft 261 kts 181°
2026-05-01 11:49 47.52069 -122.46417 9454 ft 261 kts 181°
2026-05-01 11:49 47.50254 -122.46436 9123 ft 260 kts 181°
2026-05-01 11:50 47.48438 -122.46455 8803 ft 259 kts 181°
2026-05-01 11:50 47.46641 -122.46471 8486 ft 258 kts 180°
2026-05-01 11:50 47.44854 -122.46487 8134 ft 259 kts 180°
2026-05-01 11:50 47.43032 -122.46504 7701 ft 263 kts 180°
2026-05-01 11:51 47.41204 -122.46520 7385 ft 262 kts 180°
2026-05-01 11:51 47.39399 -122.46536 7091 ft 260 kts 180°
2026-05-01 11:51 47.37591 -122.46552 6792 ft 258 kts 180°
2026-05-01 11:51 47.35822 -122.46568 6582 ft 254 kts 180°
2026-05-01 11:52 47.34044 -122.46584 6072 ft 258 kts 180°
2026-05-01 11:52 47.32252 -122.46599 5567 ft 261 kts 179°
2026-05-01 11:52 47.30426 -122.46614 5103 ft 262 kts 179°
2026-05-01 11:52 47.28672 -122.46612 4996 ft 248 kts 179°
2026-05-01 11:53 47.26996 -122.46580 4996 ft 234 kts 178°
2026-05-01 11:53 47.25389 -122.46551 4987 ft 227 kts 178°
2026-05-01 11:53 47.23811 -122.46526 4986 ft 224 kts 178°
2026-05-01 11:53 47.22267 -122.46503 4985 ft 223 kts 178°
2026-05-01 11:54 47.20720 -122.46478 4988 ft 223 kts 178°
2026-05-01 11:54 47.19160 -122.46508 4970 ft 222 kts 171°
2026-05-01 11:54 47.17750 -122.45684 4672 ft 222 kts 139°
2026-05-01 11:54 47.16909 -122.43858 4497 ft 212 kts 103°
2026-05-01 11:55 47.16846 -122.41795 4441 ft 201 kts 85°
2026-05-01 11:55 47.16970 -122.39737 4149 ft 203 kts 84°
2026-05-01 11:55 47.17215 -122.37732 3972 ft 195 kts 64°
2026-05-01 11:55 47.18093 -122.36351 3948 ft 181 kts 28°
2026-05-01 11:56 47.19215 -122.35585 3975 ft 178 kts 24°
2026-05-01 11:56 47.20352 -122.34856 3978 ft 178 kts 25°
2026-05-01 11:56 47.21489 -122.34126 3981 ft 177 kts 25°
2026-05-01 11:56 47.22611 -122.33396 3984 ft 177 kts 28°
2026-05-01 11:57 47.23687 -122.32547 3985 ft 177 kts 27°
2026-05-01 11:57 47.24865 -122.32044 3979 ft 178 kts
2026-05-01 11:57 47.26093 -122.31964 3976 ft 171 kts
2026-05-01 11:57 47.27226 -122.31959 3975 ft 157 kts
2026-05-01 11:58 47.28314 -122.31973 3868 ft 156 kts 359°
2026-05-01 11:58 47.29411 -122.32018 3590 ft 158 kts
2026-05-01 11:58 47.31594 -122.32045 2927 ft 156 kts
2026-05-01 11:59 47.32679 -122.31975 2591 ft 156 kts
2026-05-01 11:59 47.33731 -122.31889 2396 ft 147 kts
2026-05-01 11:59 47.34756 -122.31889 2206 ft 149 kts
2026-05-01 12:00 47.36807 -122.31870 1805 ft 147 kts
2026-05-01 12:00 47.37831 -122.31857 1607 ft 146 kts
2026-05-01 12:00 47.39849 -122.31879 1219 ft 146 kts
2026-05-01 12:01 47.40861 -122.31860 967 ft 145 kts
2026-05-01 12:01 47.41868 -122.31832 786 ft 144 kts
2026-05-01 12:01 47.42857 -122.31824 619 ft 144 kts
2026-05-01 12:01 47.43870 -122.31808 442 ft 144 kts
2026-05-01 12:02 47.44807 -122.31801 381 ft 105 kts 357°
2026-05-01 12:02 47.45058 -122.31812 386 ft 2 kts
2026-05-01 12:02 47.45100 -122.31805 385 ft 7 kts
2026-05-01 12:02 47.45161 -122.31793 384 ft 9 kts
2026-05-01 12:03 47.45236 -122.31773 380 ft 13 kts 14°
2026-05-01 12:03 47.45332 -122.31731 375 ft 15 kts 17°
2026-05-01 12:03 47.45427 -122.31646 375 ft 14 kts 38°
2026-05-01 12:03 47.45477 -122.31559 383 ft 6 kts 62°
2026-05-01 12:04 47.45483 -122.31544 385 ft 0 kts 63°
2026-05-01 12:04 47.45483 -122.31543 385 ft 0 kts 63°
2026-05-01 12:04 47.45512 -122.31377 407 ft 21 kts 86°
2026-05-01 12:04 47.45511 -122.31233 421 ft 9 kts 90°
2026-05-01 12:05 47.45509 -122.31132 428 ft 14 kts 92°
2026-05-01 12:05 47.45558 -122.30844 437 ft 12 kts 63°
2026-05-01 12:05 47.45573 -122.30733 440 ft 10 kts 99°
2026-05-01 12:06 47.45541 -122.30651 441 ft 9 kts 140°
2026-05-01 12:06 47.45443 -122.30616 438 ft 17 kts 177°
2026-05-01 12:06 47.45316 -122.30615 433 ft 19 kts 180°
2026-05-01 12:06 47.45169 -122.30617 426 ft 22 kts 181°
2026-05-01 12:07 47.45048 -122.30618 419 ft 11 kts 179°
2026-05-01 12:07 47.45008 -122.30617 417 ft 0 kts 178°
2026-05-01 12:07 47.44955 -122.30617 415 ft 16 kts 181°
2026-05-01 12:08 47.44832 -122.30622 410 ft 18 kts 182°
2026-05-01 12:08 47.44709 -122.30626 406 ft 11 kts 180°
2026-05-01 12:08 47.44630 -122.30627 403 ft 16 kts 180°
2026-05-01 12:08 47.44498 -122.30631 400 ft 19 kts 183°
2026-05-01 12:09 47.44364 -122.30633 395 ft 20 kts 180°
2026-05-01 12:09 47.44226 -122.30634 391 ft 11 kts 179°
2026-05-01 12:09 47.44141 -122.30632 390 ft 13 kts 179°
2026-05-01 12:09 47.44040 -122.30629 386 ft 15 kts 173°
2026-05-01 12:10 47.43993 -122.30550 386 ft 7 kts 100°
2026-05-01 12:10 47.43988 -122.30407 386 ft 7 kts 91°
2026-05-01 12:10 47.43989 -122.30349 387 ft 4 kts 85°
2026-05-01 12:11 47.44009 -122.30263 387 ft 4 kts 67°
2026-05-01 12:11 47.44015 -122.30218 387 ft 4 kts 99°
2026-05-01 12:11 47.43994 -122.30190 387 ft 5 kts 160°
2026-05-01 12:12 47.43975 -122.30184 386 ft 0 kts 175°